Location: Wald
(31.7579°N, 86.6655°W)
Time: 12:10:17
(UTC+00:00)

CZ-2C R/B - Pass Details

Date: 14 July 2020
Orbit: 503 x 567 km, 97.7° (Epoch: 09 August)

Event Time Altitude Azimuth Distance (km) Brightness Sun altitude
Rises 08:36:32 0° 22° (NNE) 2,766 7.6 -23.8°
Reaches altitude 10° 08:38:49 10° 31° (NNE) 1,863 6.6 -23.5°
Maximum altitude 08:42:33 36° 98° (E) 897 4.1 -22.9°
Enters shadow 08:43:49 29° 137° (SE) 1,051 4.2 -22.7°
